H1 CPF 2 NER 2024 8 2 9 215 01 glonass131 H2 1301901 9131 39155 2024 8 2 0 0 0 2024 8 5 23 45 0 900 1 1 0 0 0 1 H9 10 0 60524 0.00000 0 21615975.062 -9394408.975 -9630175.982 10 0 60524 900.00000 0 20423177.100 -8699756.126 -12463518.044 10 0 60524 1800.00000 0 19029891.967 -7702364.599 -15053339.328 10 0 60524 2700.00000 0 17497609.541 -6395129.821 -17349011.175 10 0 60524 3600.00000 0 15890068.420 -4783926.124 -19305684.187 10 0 60524 4500.00000 0 14270563.987 -2887625.792 -20885178.859 10 0 60524 5400.00000 0 12699296.249 -737564.745 -22056739.519 10 0 60524 6300.00000 0 11230871.051 1623523.066 -22797636.254 10 0 60524 7200.00000 0 9912061.171 4143057.410 -23093603.014 10 0 60524 8100.00000 0 8779921.975 6760583.746 -22939103.930 10 0 60524 9000.00000 0 7860340.497 9410081.696 -22337423.724 10 0 60524 9900.00000 0 7167077.669 12022512.201 -21300581.876 10 0 60524 10800.00000 0 6701341.871 14528495.933 -19849073.950 10 0 60524 11700.00000 0 6451909.043 16861010.521 -18011446.922 10 0 60524 12600.00000 0 6395781.236 18957993.920 -15823718.638 10 0 60524 13500.00000 0 6499352.681 20764745.940 -13328654.435 10 0 60524 14400.00000 0 6720031.262 22236028.973 -10574916.541 10 0 60524 15300.00000 0 7008244.455 23337782.159 -7616104.104 10 0 60524 16200.00000 0 7309743.121 24048379.841 -4509703.501 10 0 60524 17100.00000 0 7568104.726 24359384.494 -1315969.887 10 0 60524 18000.00000 0 7727329.832 24275765.509 1903238.053 10 0 60524 18900.00000 0 7734422.539 23815577.445 5085647.758 10 0 60524 19800.00000 0 7541846.845 23009113.534 8169764.488 10 0 60524 20700.00000 0 7109756.644 21897571.640 11096042.976 10 0 60524 21600.00000 0 6407906.847 20531289.519 13808017.808 10 0 60524 22500.00000 0 5417166.572 18967623.356 16253372.435 10 0 60524 23400.00000 0 4130571.856 17268557.700 18384928.006 10 0 60524 24300.00000 0 2553874.137 15498145.280 20161534.942 10 0 60524 25200.00000 0 705561.256 13719881.697 21548851.931 10 0 60524 26100.00000 0 -1383651.070 11994122.322 22519998.918 10 0 60524 27000.00000 0 -3671838.024 10375646.789 23056072.743 10 0 60524 27900.00000 0 -6107354.966 8911470.532 23146516.153 10 0 60524 28800.00000 0 -8630738.443 7638992.918 22789333.110 10 0 60524 29700.00000 0 -11176943.336 6584558.163 21991145.601 10 0 60524 30600.00000 0 -13677826.620 5762488.755 20767089.525 10 0 60524 31500.00000 0 -16064777.523 5174632.244 19140549.784 10 0 60524 32400.00000 0 -18271387.161 4810441.423 17142737.339 10 0 60524 33300.00000 0 -20236048.108 4647586.218 14812113.823 10 0 60524 34200.00000 0 -21904376.109 4653073.437 12193672.263 10 0 60524 35100.00000 0 -23231352.487 4784829.143 9338085.466 10 0 60524 36000.00000 0 -24183096.337 4993678.503 6300736.653 10 0 60524 36900.00000 0 -24738190.264 5225640.423 3140649.914 10 0 60524 37800.00000 0 -24888501.654 5424440.110 -80659.282 10 0 60524 38700.00000 0 -24639462.465 5534132.396 -3300390.874 10 0 60524 39600.00000 0 -24009793.516 5501723.020 -6455699.716 10 0 60524 40500.00000 0 -23030683.213 5279674.325 -9484941.957 10 0 60524 41400.00000 0 -21744454.376 4828186.154 -12328901.833 10 0 60524 42300.00000 0 -20202775.310 4117152.042 -14931972.437 10 0 60524 43200.00000 0 -18464491.298 3127704.656 -17243265.026 10 0 60524 44100.00000 0 -16593169.384 1853282.249 -19217622.946 10 0 60524 45000.00000 0 -14654461.800 300168.749 -20816518.544 10 0 60524 45900.00000 0 -12713401.152 -1512516.817 -22008814.247 10 0 60524 46800.00000 0 -10831743.080 -3553381.932 -22771372.302 10 0 60524 47700.00000 0 -9065469.612 -5779849.594 -23089501.197 10 0 60524 48600.00000 0 -7462558.926 -8139728.372 -22957230.590 10 0 60524 49500.00000 0 -6061115.079 -10573196.640 -22377410.451 10 0 60524 50400.00000 0 -4887935.304 -13015116.600 -21361633.876 10 0 60524 51300.00000 0 -3957573.133 -15397580.049 -19929986.807 10 0 60524 52200.00000 0 -3271934.097 -17652578.513 -18110631.335 10 0 60524 53100.00000 0 -2820417.860 -19714685.613 -15939232.555 10 0 60524 54000.00000 0 -2580597.387 -21523639.689 -13458241.884 10 0 60524 54900.00000 0 -2519403.148 -23026719.507 -10716052.323 10 0 60524 55800.00000 0 -2594759.395 -24180815.132 -7766043.451 10 0 60524 56700.00000 0 -2757600.903 -24954109.337 -4665535.659 10 0 60524 57600.00000 0 -2954183.233 -25327301.599 -1474674.585 10 0 60524 58500.00000 0 -3128587.925 -25294326.061 1744732.339 10 0 60524 59400.00000 0 -3225316.537 -24862535.970 4930404.891 10 0 60524 60300.00000 0 -3191864.537 -24052349.220 8020782.174 10 0 60524 61200.00000 0 -2981167.410 -22896371.662 10956195.761 10 0 60524 62100.00000 0 -2553817.262 -21438036.074 13680002.609 10 0 60524 63000.00000 0 -1879958.018 -19729814.089 16139657.537 10 0 60524 63900.00000 0 -940780.767 -17831075.452 18287706.432 10 0 60524 64800.00000 0 270442.656 -15805682.754 20082682.985 10 0 60524 65700.00000 0 1747831.054 -13719420.215 21489893.582 10 0 60524 66600.00000 0 3472892.907 -11637361.375 22482076.793 10 0 60524 67500.00000 0 5415054.588 -9621282.881 23039926.036 10 0 60524 68400.00000 0 7532697.971 -7727229.568 23152466.023 10 0 60524 69300.00000 0 9774667.099 -6003330.108 22817275.798 10 0 60524 70200.00000 0 12082184.498 -4487952.561 22040553.447 10 0 60524 71100.00000 0 14391100.870 -3208275.738 20837019.954 10 0 60524 72000.00000 0 16634387.767 -2179335.826 19229662.170 10 0 60524 72900.00000 0 18744772.266 -1403588.631 17249317.541 10 0 60524 73800.00000 0 20657405.847 -871006.930 14934106.043 10 0 60524 74700.00000 0 22312457.192 -559710.427 12328717.731 10 0 60524 75600.00000 0 23657520.601 -437103.558 9483567.299 10 0 60524 76500.00000 0 24649738.301 -461474.832 6453830.121 10 0 60524 77400.00000 0 25257545.839 -583991.365 3298377.168 10 0 60524 78300.00000 0 25461964.917 -751004.837 78628.954 10 0 60524 79200.00000 0 25257386.587 -906570.924 -3142648.971 10 0 60524 80100.00000 0 24651809.231 -995074.284 -6302584.494 10 0 60524 81000.00000 0 23666519.017 -963845.790 -9339445.568 10 0 60524 81900.00000 0 22335224.692 -765658.371 -12193868.563 10 0 60524 82800.00000 0 20702682.373 -360992.578 -14810041.920 10 0 60524 83700.00000 0 18822868.374 280027.301 -17136819.553 10 0 60524 84600.00000 0 16756777.885 1176111.535 -19128740.042 10 0 60524 85500.00000 0 14569943.685 2333764.528 -20746929.812 10 0 60525 0.00000 0 12329781.301 3746771.367 -21959871.253 10 0 60525 900.00000 0 10102872.887 5396234.890 -22744020.658 10 0 60525 1800.00000 0 7952308.504 7251160.102 -23084262.275 10 0 60525 2700.00000 0 5935193.479 9269563.471 -22974192.304 10 0 60525 3600.00000 0 4100429.643 11400057.781 -22416226.587 10 0 60525 4500.00000 0 2486861.725 13583845.482 -21421532.057 10 0 60525 5400.00000 0 1121865.296 15757035.488 -20009784.821 10 0 60525 6300.00000 0 20433.120 17853185.195 -18208761.421 10 0 60525 7200.00000 0 -815204.771 19805960.344 -16053773.096 10 0 60525 8100.00000 0 -1395414.792 21551801.043 -13586955.792 10 0 60525 9000.00000 0 -1742457.954 23032482.575 -10856431.325 10 0 60525 9900.00000 0 -1889285.450 24197464.634 -7915357.332 10 0 60525 10800.00000 0 -1877885.555 25005932.106 -4820885.512 10 0 60525 11700.00000 0 -1757253.985 25428443.844 -1633048.987 10 0 60525 12600.00000 0 -1581075.056 25448122.657 1586399.304 10 0 60525 13500.00000 0 -1405212.390 25061339.004 4775174.840 10 0 60525 14400.00000 0 -1285115.107 24277862.002 7871653.980 10 0 60525 15300.00000 0 -1273248.301 23120473.283 10816048.529 10 0 60525 16200.00000 0 -1416654.976 21624061.185 13551541.085 10 0 60525 17100.00000 0 -1754750.686 19834233.720 16025360.936 10 0 60525 18000.00000 0 -2317442.230 17805508.091 18189781.578 10 0 60525 18900.00000 0 -3123648.241 15599151.322 20003022.593 10 0 60525 19800.00000 0 -4180283.057 13280760.300 21430040.371 10 0 60525 20700.00000 0 -5481746.492 10917679.793 22443194.085 10 0 60525 21600.00000 0 -7009941.682 8576363.260 23022775.317 10 0 60525 22500.00000 0 -8734821.951 6319783.559 23157391.901 10 0 60525 23400.00000 0 -10615446.343 4204998.700 22844198.627 10 0 60525 24300.00000 0 -12601502.785 2280971.795 22088969.817 10 0 60525 25200.00000 0 -14635238.779 586734.432 20906011.097 10 0 60525 26100.00000 0 -16653722.423 -850030.759 19317910.223 10 0 60525 27000.00000 0 -18591342.550 -2013929.214 17355129.495 10 0 60525 27900.00000 0 -20382446.014 -2902275.281 15055445.043 10 0 60525 28800.00000 0 -21964003.497 -3524975.906 12463241.248 10 0 60525 29700.00000 0 -23278192.836 -3903880.521 9628671.582 10 0 60525 30600.00000 0 -24274791.116 -4071622.856 6606700.138 10 0 60525 31500.00000 0 -24913273.679 -4070002.161 3456041.128 10 0 60525 32400.00000 0 -25164529.567 -3947971.390 238016.361 10 0 60525 33300.00000 0 -25012118.504 -3759317.308 -2984646.903 10 0 60525 34200.00000 0 -24453013.518 -3560131.509 -6149053.307 10 0 60525 35100.00000 0 -23497795.224 -3406181.103 -9193386.219 10 0 60525 36000.00000 0 -22170287.301 -3350292.795 -12058137.582 10 0 60525 36900.00000 0 -20506647.050 -3439864.124 -14687294.364 10 0 60525 37800.00000 0 -18553948.702 -3714610.354 -17029455.980 10 0 60525 38700.00000 0 -16368319.330 -4204645.469 -19038858.650 10 0 60525 39600.00000 0 -14012706.793 -4928981.128 -20676284.747 10 0 60525 40500.00000 0 -11554375.011 -5894509.100 -21909838.052 10 0 60525 41400.00000 0 -9062233.480 -7095511.539 -22715569.058 10 0 60525 42300.00000 0 -6604114.736 -8513720.266 -23077937.949 10 0 60525 43200.00000 0 -4244115.188 -10118922.425 -22990106.744 10 0 60525 44100.00000 0 -2040111.330 -11870086.200 -22454055.886 10 0 60525 45000.00000 0 -41555.221 -13716958.025 -21480524.382 10 0 60525 45900.00000 0 1712359.557 -15602062.728 -20088776.365 10 0 60525 46800.00000 0 3194086.608 -17463021.189 -18306200.400 10 0 60525 47700.00000 0 4388614.640 -19235087.058 -16167751.232 10 0 60525 48600.00000 0 5293820.686 -20853795.272 -13715246.581 10 0 60525 49500.00000 0 5920277.507 -22257611.093 -10996534.248 10 0 60525 50400.00000 0 6290526.936 -23390468.850 -8064547.116 10 0 60525 51300.00000 0 6437853.270 -24204094.907 -4976265.407 10 0 60525 52200.00000 0 6404611.333 -24660018.890 -1791607.037 10 0 60525 53100.00000 0 6240181.959 -24731190.732 1427732.111 10 0 60525 54000.00000 0 5998642.600 -24403137.780 4619465.649 10 0 60525 54900.00000 0 5736251.902 -23674615.580 7721909.462 10 0 60525 55800.00000 0 5508854.139 -22557726.893 10675157.678 10 0 60525 56700.00000 0 5369312.049 -21077505.330 13422220.436 10 0 60525 57600.00000 0 5365074.863 -19270981.779 15910103.185 10 0 60525 58500.00000 0 5535982.319 -17185772.614 18090808.491 10 0 60525 59400.00000 0 5912395.487 -14878247.811 19922243.016 10 0 60525 60300.00000 0 6513731.704 -12411353.715 21369014.089 10 0 60525 61200.00000 0 7347464.487 -9852178.952 22403102.116 10 0 60525 62100.00000 0 8408630.482 -7269362.039 23004397.211 10 0 60525 63000.00000 0 9679865.075 -4730445.564 23161090.420 10 0 60525 63900.00000 0 11131967.017 -2299284.063 22869912.144 10 0 60525 64800.00000 0 12724971.036 -33610.783 22136212.595 10 0 60525 65700.00000 0 14409686.671 2017137.513 20973881.516 10 0 60525 66600.00000 0 16129642.330 3813648.446 19405106.896 10 0 60525 67500.00000 0 17823356.477 5328138.985 17459975.060 10 0 60525 68400.00000 0 19426843.720 6545278.581 15175917.298 10 0 60525 69300.00000 0 20876252.865 7462590.940 12597011.146 10 0 60525 70200.00000 0 22110527.449 8090316.234 9773147.460 10 0 60525 71100.00000 0 23073977.099 8450737.977 6759077.412 10 0 60525 72000.00000 0 23718650.626 8577001.412 3613356.543 10 0 60525 72900.00000 0 24006409.053 8511472.136 397205.788 10 0 60525 73800.00000 0 23910608.611 8303703.833 -2826688.283 10 0 60525 74700.00000 0 23417319.771 8008101.344 -5995409.645 10 0 60525 75600.00000 0 22526027.823 7681379.160 -9047059.737 10 0 60525 76500.00000 0 21249782.735 7379924.880 -11921988.746 10 0 60525 77400.00000 0 19614789.816 7157181.875 -14563984.760 10 0 60525 78300.00000 0 17659457.084 7061164.892 -16921395.168 10 0 60525 79200.00000 0 15432938.947 7132216.772 -18948156.139 10 0 60525 80100.00000 0 12993237.811 7401103.927 -20604708.140 10 0 60525 81000.00000 0 10404944.430 7887533.342 -21858778.233 10 0 60525 81900.00000 0 7736713.228 8599155.320 -22686013.116 10 0 60525 82800.00000 0 5058580.100 9531094.807 -23070450.358 10 0 60525 83700.00000 0 2439236.422 10666031.065 -23004819.114 10 0 60525 84600.00000 0 -56625.705 11974821.578 -22490665.415 10 0 60525 85500.00000 0 -2370785.635 13417642.683 -21538300.945 10 0 60526 0.00000 0 -4453680.778 14945597.155 -20166578.167 10 0 60526 900.00000 0 -6266218.751 16502720.319 -18402497.124 10 0 60526 1800.00000 0 -7781138.771 18028296.658 -16280655.404 10 0 60526 2700.00000 0 -8983872.039 19459391.098 -13842551.275 10 0 60526 3600.00000 0 -9872865.732 20733485.790 -11135756.890 10 0 60526 4500.00000 0 -10459361.878 21791112.219 -8212978.358 10 0 60526 5400.00000 0 -10766643.914 22578368.404 -5131022.095 10 0 60526 6300.00000 0 -10828785.962 23049216.425 -1949688.197 10 0 60526 7200.00000 0 -10688960.237 23167465.270 1269387.341 10 0 60526 8100.00000 0 -10397375.901 22908357.558 4463919.264 10 0 60526 9000.00000 0 -10008937.369 22259695.409 7572166.103 10 0 60526 9900.00000 0 -9580721.070 21222460.041 10534107.484 10 0 60526 10800.00000 0 -9169376.438 19810900.549 13292584.274 10 0 60526 11700.00000 0 -8828559.450 18052089.009 15794381.211 10 0 60526 12600.00000 0 -8606505.160 15984960.685 17991232.954 10 0 60526 13500.00000 0 -8543839.579 13658878.798 19840736.123 10 0 60526 14400.00000 0 -8671721.209 11131782.264 21307151.626 10 0 60526 15300.00000 0 -9010389.084 8467991.438 22362083.495 10 0 60526 16200.00000 0 -9568177.606 5735760.438 22985022.430 10 0 60526 17100.00000 0 -10341039.722 3004674.764 23163744.371 10 0 60526 18000.00000 0 -11312599.483 342999.255 22894556.558 10 0 60526 18900.00000 0 -12454733.690 -2184916.370 22182385.819 10 0 60526 19800.00000 0 -13728660.861 -4521069.042 21040706.200 10 0 60526 20700.00000 0 -15086494.926 -6615971.580 19491305.524 10 0 60526 21600.00000 0 -16473201.690 -8430470.356 17563893.158 10 0 60526 22500.00000 0 -17828878.996 -9937135.811 15295553.988 10 0 60526 23400.00000 0 -19091267.279 -11121167.101 12730056.610 10 0 60526 24300.00000 0 -20198386.650 -11980771.912 9917026.682 10 0 60526 25200.00000 0 -21091190.192 -12527003.933 6910999.463 10 0 60526 26100.00000 0 -21716121.273 -12783063.248 3770368.523 10 0 60526 27000.00000 0 -22027465.587 -12783087.723 556250.358 10 0 60526 27900.00000 0 -21989396.364 -12570485.495 -2668712.878 10 0 60526 28800.00000 0 -21577623.470 -12195878.831 -5841588.306 10 0 60526 29700.00000 0 -20780573.599 -11714746.951 -8900399.300 10 0 60526 30600.00000 0 -19600048.623 -11184869.007 -11785358.093 10 0 60526 31500.00000 0 -18051331.656 -10663677.617 -14440057.572 10 0 60526 32400.00000 0 -16162734.337 -10205637.591 -16812596.534 10 0 60526 33300.00000 0 -13974603.239 -9859763.645 -18856614.178 10 0 60526 34200.00000 0 -11537826.897 -9667384.808 -20532211.654 10 0 60526 35100.00000 0 -8911906.662 -9660252.390 -21806741.298 10 0 60526 36000.00000 0 -6162673.369 -9859073.148 -22655447.328 10 0 60526 36900.00000 0 -3359746.950 -10272530.522 -23061945.300 10 0 60526 37800.00000 0 -573846.756 -10896835.362 -23018531.400 10 0 60526 38700.00000 0 2125933.791 -11715824.414 -22526316.485 10 0 60526 39600.00000 0 4674773.580 -12701601.146 -21595183.597 10 0 60526 40500.00000 0 7014580.788 -13815690.146 -20243571.435 10 0 60526 41400.00000 0 9096158.678 -15010654.547 -18498089.814 10 0 60526 42300.00000 0 10880991.444 -16232106.414 -16392976.425 10 0 60526 43200.00000 0 12342577.957 -17421023.787 -13969407.296 10 0 60526 44100.00000 0 13467260.780 -18516275.595 -11274675.930 10 0 60526 45000.00000 0 14254519.203 -19457247.426 -8361258.505 10 0 60526 45900.00000 0 14716717.771 -20186457.588 -5285784.369 10 0 60526 46800.00000 0 14878324.350 -20652053.913 -2107932.510 10 0 60526 47700.00000 0 14774633.734 -20810087.309 1110724.218 10 0 60526 48600.00000 0 14450052.947 -20626467.973 4307904.812 10 0 60526 49500.00000 0 13956022.090 -20078523.707 7421813.369 10 0 60526 50400.00000 0 13348659.030 -19156096.621 10392317.664 10 0 60526 51300.00000 0 12686227.025 -17862133.636 13162091.606 10 0 60526 52200.00000 0 12026530.965 -16212747.054 15677701.179 10 0 60526 53100.00000 0 11424350.351 -14236743.013 17890614.705 10 0 60526 54000.00000 0 10929015.052 -11974637.127 19758119.920 10 0 60526 54900.00000 0 10582223.831 -9477197.143 21244132.102 10 0 60526 55800.00000 0 10416195.475 -6803571.411 22319879.310 10 0 60526 56700.00000 0 10452228.885 -4019078.382 22964452.887 10 0 60526 57600.00000 0 10699731.944 -1192745.964 23165213.408 10 0 60526 58500.00000 0 11155760.138 1605300.282 22918044.419 10 0 60526 59400.00000 0 11805085.384 4306494.820 22227448.609 10 0 60526 60300.00000 0 12620794.091 6846428.154 21106483.380 10 0 60526 61200.00000 0 13565391.888 9167275.486 19576535.299 10 0 60526 62100.00000 0 14592371.517 11219958.437 17666935.554 10 0 60526 63000.00000 0 15648180.956 12965950.416 15414421.301 10 0 60526 63900.00000 0 16674511.591 14378650.041 12862450.734 10 0 60526 64800.00000 0 17610812.139 15444264.225 10060382.727 10 0 60526 65700.00000 0 18396923.471 16162162.507 7062534.882 10 0 60526 66600.00000 0 18975723.291 16544686.016 3927136.871 10 0 60526 67500.00000 0 19295668.044 16616417.477 715198.685 10 0 60526 68400.00000 0 19313122.711 16412941.746 -2510684.151 10 0 60526 69300.00000 0 18994377.354 15979148.496 -5687564.221 10 0 60526 70200.00000 0 18317261.984 15367148.862 -8753389.162 10 0 60526 71100.00000 0 17272288.248 14633895.035 -11648235.571 10 0 60526 72000.00000 0 15863266.627 13838605.167 -14315503.364 10 0 60526 72900.00000 0 14107370.581 13040104.790 -16703044.869 10 0 60526 73800.00000 0 12034643.083 12294199.794 -18764204.302 10 0 60526 74700.00000 0 9686965.386 11651194.677 -20458745.362 10 0 60526 75600.00000 0 7116531.208 11153663.329 -21753647.396 10 0 60526 76500.00000 0 4383890.976 10834568.334 -22623753.744 10 0 60526 77400.00000 0 1555649.205 10715809.294 -23052259.384 10 0 60526 78300.00000 0 -1298087.267 10807261.680 -23031028.755 10 0 60526 79200.00000 0 -4106402.220 11106346.204 -22560738.472 10 0 60526 80100.00000 0 -6800290.669 11598145.531 -21650843.499 10 0 60526 81000.00000 0 -9315293.170 12256061.584 -20319369.064 10 0 60526 81900.00000 0 -11593934.194 13042983.500 -18592534.201 10 0 60526 82800.00000 0 -13587863.872 13912914.725 -16504216.073 10 0 60526 83700.00000 0 -15259615.582 14812988.524 -14095267.311 10 0 60526 84600.00000 0 -16583908.622 15685785.177 -11412701.261 10 0 60526 85500.00000 0 -17548444.567 16471851.895 -8508762.373 10 0 60527 0.00000 0 -18154167.460 17112318.589 -5439901.168 10 0 60527 900.00000 0 -18414980.674 17551499.563 -2265672.741 10 0 60527 1800.00000 0 -18356934.900 17739371.302 952415.322 10 0 60527 2700.00000 0 -18016925.196 17633824.301 4152088.822 10 0 60527 3600.00000 0 -17440953.098 17202594.696 7271500.102 10 0 60527 4500.00000 0 -16682028.469 16424796.456 10250407.879 10 0 60527 5400.00000 0 -15797799.620 15291991.130 13031321.989 10 0 60527 6300.00000 0 -14848010.836 13808751.440 15560592.583 10 0 60527 7200.00000 0 -13891892.939 11992695.652 17789424.546 10 0 60527 8100.00000 0 -12985594.716 9873991.140 19674799.558 10 0 60527 9000.00000 0 -12179760.984 7494346.938 21180289.931 10 0 60527 9900.00000 0 -11517356.847 4905535.527 22276750.199 10 0 60527 10800.00000 0 -11031827.593 2167502.951 22942874.517 10 0 60527 11700.00000 0 -10745670.095 -653857.186 23165609.917 10 0 60527 12600.00000 0 -10669475.078 -3489176.650 22940417.687 10 0 60527 13500.00000 0 -10801480.660 -6268233.097 22271377.375 10 0 60527 14400.00000 0 -11127657.039 -8922612.517 21171130.269 10 0 60527 15300.00000 0 -11622320.606 -11388305.523 19660661.709 10 0 60527 16200.00000 0 -12249254.087 -13608131.458 17768924.232 10 0 60527 17100.00000 0 -12963288.272 -15533890.390 15532306.271 10 0 60527 18000.00000 0 -13712281.325 -17128153.375 12993954.153 10 0 60527 18900.00000 0 -14439414.446 -18365615.502 10202958.040 10 0 60527 19800.00000 0 -15085708.521 -19233953.714 7213415.549 10 0 60527 20700.00000 0 -15592656.019 -19734151.668 4083389.782 10 0 60527 21600.00000 0 -15904856.445 -19880276.098 873781.227 10 0 60527 22500.00000 0 -15972542.389 -19698712.431 -2352864.471 10 0 60527 23400.00000 0 -15753886.935 -19226890.690 -5533588.822 10 0 60527 24300.00000 0 -15216991.809 -18511554.991 -8606267.381 10 0 60527 25200.00000 0 -14341468.846 -17606650.046 -11510844.859 10 0 60527 26100.00000 0 -13119544.632 -16570915.130 -14190531.984 10 0 60527 27000.00000 0 -11556638.710 -15465289.048 -16592938.317 10 0 60527 27900.00000 0 -9671388.610 -14350238.061 -18671116.579 10 0 60527 28800.00000 0 -7495119.099 -13283122.149 -20384496.156 10 0 60527 29700.00000 0 -5070777.244 -12315713.211 -21699686.062 10 0 60527 30600.00000 0 -2451378.073 -11491971.858 -22591130.831 10 0 60527 31500.00000 0 301973.249 -10846177.894 -23041606.289 10 0 60527 32400.00000 0 3122398.791 -10401493.752 -23042545.878 10 0 60527 33300.00000 0 5939806.592 -10169021.036 -22594192.082 10 0 60527 34200.00000 0 8683582.663 -10147388.687 -21705571.288 10 0 60527 35100.00000 0 11285303.105 -10322888.202 -20394294.229 10 0 60527 36000.00000 0 13681352.947 -10670147.813 -18686187.630 10 0 60527 36900.00000 0 15815342.932 -11153314.562 -16614766.149 10 0 60527 37800.00000 0 17640224.644 -11727691.835 -14220556.633 10 0 60527 38700.00000 0 19120017.714 -12341760.959 -11550289.475 10 0 60527 39600.00000 0 20231079.532 -12939499.728 -8655974.248 10 0 60527 40500.00000 0 20962867.491 -13462898.769 -5593878.642 10 0 60527 41400.00000 0 21318165.147 -13854569.068 -2423431.307 10 0 60527 42300.00000 0 21312766.096 -14060330.725 793929.731 10 0 60527 43200.00000 0 20974631.742 -14031674.549 3995940.803 10 0 60527 44100.00000 0 20342560.706 -13727993.901 7120706.065 10 0 60527 45000.00000 0 19464427.363 -13118494.271 10107878.472 10 0 60527 45900.00000 0 18395064.264 -12183701.732 12899806.706 10 0 60527 46800.00000 0 17193877.223 -10916508.135 15442627.568 10 0 60527 47700.00000 0 15922292.276 -9322710.014 17687284.521 10 0 60527 48600.00000 0 14641139.984 -7421018.780 19590454.725 10 0 60527 49500.00000 0 13408084.699 -5242541.143 21115368.598 10 0 60527 50400.00000 0 12275204.271 -2829750.016 22232507.782 10 0 60527 51300.00000 0 11286819.366 -234986.567 22920169.459 10 0 60527 52200.00000 0 10477661.492 2481447.103 23164886.951 10 0 60527 53100.00000 0 9871455.168 5253528.662 22961698.774 10 0 60527 54000.00000 0 9479973.162 8011999.971 22314260.507 10 0 60527 54900.00000 0 9302604.668 10686995.414 21234796.224 10 0 60527 55800.00000 0 9326455.682 13210707.798 19743888.706 10 0 60527 56700.00000 0 9526979.124 15519983.285 17870110.301 10 0 60527 57600.00000 0 9869110.424 17558738.767 15649499.029 10 0 60527 58500.00000 0 10308863.153 19280101.370 13124887.498 10 0 60527 59400.00000 0 10795319.598 20648180.363 10345095.173 10 0 60527 60300.00000 0 11272933.975 21639396.119 7363997.568 10 0 60527 61200.00000 0 11684051.868 22243308.661 4239488.959 10 0 60527 62100.00000 0 11971539.338 22462908.917 1032357.985 10 0 60527 63000.00000 0 12081409.394 22314358.457 -2194902.007 10 0 60527 63900.00000 0 11965332.685 21826186.954 -5379323.895 10 0 60527 64800.00000 0 11582923.374 21037980.196 -8458713.533 10 0 60527 65700.00000 0 10903700.222 19998613.675 -11372886.040 10 0 60527 66600.00000 0 9908636.543 18764106.904 -14064865.107 10 0 60527 67500.00000 0 8591230.290 17395190.370 -16482019.498 10 0 60527 68400.00000 0 6958046.330 15954689.740 -18577112.257 10 0 60527 69300.00000 0 5028705.979 14504840.018 -20309240.102 10 0 60527 70200.00000 0 2835322.973 13104645.208 -21644643.204 10 0 60527 71100.00000 0 421409.112 11807396.855 -22557368.626 10 0 60527 72000.00000 0 -2159704.160 10658457.485 -23029774.185 10 0 60527 72900.00000 0 -4846861.238 9693402.999 -23052863.242 10 0 60527 73800.00000 0 -7573410.240 8936602.050 -22626444.760 10 0 60527 74700.00000 0 -10269764.659 8400291.167 -21759116.810 10 0 60527 75600.00000 0 -12866090.750 8084182.654 -20468075.456 10 0 60527 76500.00000 0 -15295007.846 7975619.305 -18778754.537 10 0 60527 77400.00000 0 -17494188.811 8050266.536 -16724305.205 10 0 60527 78300.00000 0 -19408752.790 8273309.762 -14344927.162 10 0 60527 79200.00000 0 -20993351.742 8601103.690 -11687066.210 10 0 60527 80100.00000 0 -22213865.630 8983201.489 -8802495.181 10 0 60527 81000.00000 0 -23048638.034 9364676.324 -5747297.203 10 0 60527 81900.00000 0 -23489203.427 9688636.066 -2580771.789 10 0 60527 82800.00000 0 -23540478.734 9898824.571 635714.554 10 0 60527 83700.00000 0 -23220414.069 9942199.998 3839911.027 10 0 60527 84600.00000 0 -22559119.805 9771382.211 6969876.041 10 0 60527 85500.00000 0 -21597508.484 9346867.360 9965159.326 99